www.pogodaiklimat.ru

Погода и климат >> Архив погоды >> Малайзия >> Авиабаза Баттерворт


ПОГОДА на Авиабазе Баттерворт

  • Прогноз погоды на Авиабазе Баттерворт
  • Монитор погоды на Авиабазе Баттерворт

АРХИВ ПОГОДЫ на Авиабазе Баттерворт

Время (UTC), дата Ветер
(напр.,м/с)
 
Видим.   Явления Облачность Т
(С)
Тd
(С)
f
(%)
Тe
(С)
Тes
(С)
Комфортность P
(гПа)
Po
(гПа)
Тmin
(С)
Tmax
(С)
R
(мм)
R24
(мм)
S
(см)
00 11.06 В 2 5000 м мгла 9/1 600 м
[Cu med, cong Ac trans Ci sp]
+27.2 +25.9 93 +41 +41 опасность
перегрева
1009.1 1008.8 +25.9
06 11.06 ЮЗ 3 5000 м мгла 9/3 600 м
[Cu med, cong Ac trans Ci sp]
+31.2 +25.7 73 +46 +53 опасность
перегрева
1009.0 1008.7
12 11.06 Ю 4 6000 м мгла 9/3 600 м
[Cu Sc Ac trans Ci sp]
+29.6 +25.4 78 +43 +43 опасность
перегрева
1008.0 1007.7 +31.9
18 11.06 Ю 1 7000 м мгла 9/3 750 м
[Sc Ac trans Ci sp]
+28.2 +24.4 80 +40 +40 очень
душно
1009.1 1008.8
00 12.06 ЮВ 1 8000 м мгла 9/3 600 м
[Cu Sc Ac trans Ci sp]
+27.4 +25.1 87 +39 +40 очень
душно
1009.6 1009.3 +26.5
06 12.06 ЮЗ 6 9000 м мгла 9/3 600 м
[Cu hum Ac trans Ci sp]
+31.6 +25.8 71 +47 +49 опасность
перегрева
1008.6 1008.3
12 12.06 Ю 4 8000 м мгла 9/1 720 м
[Sc Ac trans Ci sp]
+30.2 +26.2 79 +46 +46 опасность
перегрева
1007.7 1007.4 +32.9
18 12.06 Ю 3 8000 м мгла 9/3 720 м
[Sc Ac trans Ci sp]
+29.0 +26.1 84 +44 +44 опасность
перегрева
1009.2 1008.9
00 13.06 Ю 4 9000 м мгла 9/3 600 м
[Cu Sc Ac trans Ci sp]
+28.4 +24.1 78 +40 +40 очень
душно
1009.5 1009.2 +27.3
06 13.06 ЮЗ 5 10 км мгла 9/3 600 м
[Cu med, cong Ac trans Ci sp]
+32.3 +23.8 61 +44 +48 опасность
перегрева
1008.7 1008.4
12 13.06 ЮЗ 3 9000 м мгла 9/3 600 м
[Cu Sc Ac trans Ci sp]
+30.1 +25.7 77 +44 +44 опасность
перегрева
1008.7 1008.4 +33.2
18 13.06 Ю 3 8000 м мгла 9/3 720 м
[Sc Ac trans Ci sp]
+29.5 +25.6 80 +44 +44 опасность
перегрева
1009.9 1009.6
00 14.06 Ю 3 9000 м мгла 9/1 600 м
[Cu hum Ac trans Ci sp]
+28.4 +23.9 77 +39 +40 очень
душно
1009.3 1009.0 +27.6
06 14.06 ЮЗ 3 10 км мгла 8/3 600 м
[Cu med, cong Ac trans Ci sp]
+33.1 +25.6 65 +48 +55 опасность
перегрева
1007.8 1007.5
12 14.06 ЮЗ 2 10 км мгла 9/3 600 м
[Cu Sc Ac trans Ci sp]
+30.1 +25.5 76 +44 +44 опасность
перегрева
1008.0 1007.7 +33.4
18 14.06 В 1 9000 м мгла 9/3 720 м
[Sc Ac trans Ci sp]
+27.8 +26.0 90 +42 +42 опасность
перегрева
1009.9 1009.6
00 15.06 Ю 3 8000 м мгла 9/4 500 м
[Cb cap Ac trans Ci sp]
+28.2 +24.7 81 +40 +40 очень
душно
1010.7 1010.4 +26.8
06 15.06 ЮЗ 4 9000 м мгла 9/3 600 м
[Cu med, cong Ac trans Ci sp]
+31.2 +24.3 67 +43 +49 опасность
перегрева
1009.5 1009.2
12 15.06 СЗ 2 8000 м мгла 9/1 720 м
[Cu med, cong Ac trans Ci sp]
+30.4 +25.0 73 +44 +44 опасность
перегрева
1008.5 1008.2 +32.7
18 15.06 ЮВ 2 8000 м мгла 9/3 750 м
[Sc Ac trans Ci sp]
+28.8 +25.5 82 +42 +42 опасность
перегрева
1009.9 1009.6
00 16.06 В 2 6000 м мгла 9/1 600 м
[Cu med, cong Ac trans Ci sp]
+27.1 +25.7 92 +40 +41 очень
душно
1009.6 1009.3 +26.7
06 16.06 ЮЗ 4 8000 м мгла 9/3 600 м
[Cu med, cong Ac trans Ci sp]
+32.0 +23.4 60 +43 +48 опасность
перегрева
1009.3 1009.0
12 16.06 Ю 2 9000 м мгла 9/1 720 м
[Sc diur, vesp Ac trans Ci sp]
+30.7 +24.3 69 +43 +43 опасность
перегрева
1008.1 1007.8 +32.8
18 16.06 Ю 2 8000 м мгла 9/3 720 м
[Sc diur, vesp Ac trans Ci sp]
+29.9 +26.9 84 +47 +47 опасность
перегрева
1009.9 1009.6
00 17.06 В 3 7000 м мгла 9/3 600 м
[Cu Sc Ac trans Ci sp]
+27.2 +25.7 92 +40 +41 очень
душно
1009.0 1008.7 +27.1
06 17.06 З 4 6000 м мгла 9/4 500 м
[Cb cap Ac trans Ci sp]
+30.7 +26.0 76 +46 +51 опасность
перегрева
1009.8 1009.5
12 17.06 Ю 3 8000 м мгла 9/1 600 м
[Cu hum Ac trans Ci sp]
+30.1 +25.7 77 +44 +44 опасность
перегрева
1008.6 1008.3 +31.7
18 17.06 В 2 8000 м мгла 9/3 720 м
[Sc Ac trans Ci sp]
+26.9 +25.2 90 +39 +39 очень
душно
1010.2 1009.9

 

Местоположение метеостанции Авиабаза Баттерворт (Малайзия): широта 5.47 долгота 100.38 высота над уровнем моря 2 м.

В архиве по умолчанию представлена погода на Авиабазе Баттерворт за последнюю неделю. Архивные данные за месяц целиком и за предыдущие месяцы, начиная с января 2011 года, Вы можете получить, выбрав интересующий диапазон дат из раскрывающегося списка и нажав кнопку "Ввод!".


*Определитесь, кто Вы:
робот инопланетянин человек

Внимание! Время в таблицах - всемирное. Для получения местного времени необходимо прибавить поправку, которая равна 7 ч.

Смотрите также архив погоды в соседних городах и на ближайших метеорологических станциях:

Погода в Пенанге (Малайзия) (23 км)
Погода в Алор Стар (Малайзия) (81 км)
Погода в Лангкави (Малайзия) (120 км)
Погода в Ипохе (Малайзия) (128 км)
Погода в Сатуне (Таиланд) (135 км)
Погода в Хо Хонг Агромете (Таиланд) (135 км)
Погода в Ситаване (Малайзия) (143 км)
Погода в Садао (Таиланд) (148 км)
Погода в Яла Агромете (Таиланд) (153 км)
Погода на Нагорье Кэмерон (Малайзия) (156 км)

Пояснения к столбцам:

Ветер - указаны скорость ветра в м/с - средняя за 10 мин, порывы в срок и между сроками (в фигурных скобках) и направление, откуда дует ветер: С - северный, СВ - северо-восточный, В - восточный, ЮВ - юго-восточный, Ю - южный, ЮЗ - юго-западный, З - западный, СЗ - северо-западный.
Видимость - горизонтальная дальность видимости в метрах или километрах. При видимости от 1 до 10 км при отсутствии осадков обычно наблюдается дымка, при ухудшении видимости до 1 км и менее - туман. В сухую погоду видимость может ухудшаться дымом, пылью или мглою.
Явления - указаны атмосферные явления, наблюдавшиеся в срок или в последний час перед сроком; фигурными скобками обозначены явления, наблюдавшиеся между сроками (за 1-3 часа до срока); квадратными скобками обозначены град или гололедные отложения с указанием их диаметра в мм.
Облачность - указаны через наклонную черту общая и нижняя облачность в баллах и высота нижней границы облаков в метрах; квадратными скобками обозначены формы облаков: Ci - перистые, Cs - перисто-слоистые, Cc - перисто-кучевые, Ac - высококучевые, As - высокослоистые, Sc - слоисто-кучевые, Ns - слоисто-дождевые, Cu - кучевые, Cb - кучево-дождевые. Подробнее классификацию облаков см. в Атласе облаков (PDF).
T - Температура воздуха - температура, измеренная на высоте 2 м над землей.
Td - Температура точки росы - температура, при понижении до которой содержащийся в воздухе водяной пар достигнет насыщения.
f - Относительная влажность воздуха - влажноcть воздуха, измеренная на высоте 2 м над землей.
Te - Эффективная температура - температура, которую ощущает одетый по сезону человек в тени. Характеристика душности погоды. При расчете учитывается влияние влажности воздуха и скорости ветра на теплоощущения человека.
Tes - Эффективная температура на солнце - температура, которую ощущает человек, с поправкой на солнечный нагрев. Характеристика знойности погоды. Зависит от высоты солнца над горизонтом, облачности и скорости ветра. Ночью, в пасмурную погоду, а также при ветре 12 м/с и более поправка равна нулю.
P - Атмосферное давление - приведенное к уровню моря атмосферное давление.
Po - Атмосферное давление - измеренное на уровне метеостанции атмосферное давление.
Tmin - Минимальная температура - минимум температуры воздуха на высоте 2 м над землей.
Tmax - Максимальная температура - максимум температуры воздуха на высоте 2 м над землей.
R - Количество осадков - Количество выпавших осадков за период времени, мм. При наведении курсора мыши на число - период времени, за который выпало указанное количество осадков.
R24 - Количество осадков - Количество выпавших осадков за 24 часа, мм.
S - Снежный покров - Высота снежного покрова, см. При наведении курсора мыши на число - состояние снежного покрова и степень покрытия местности в баллах.